Location: Champseau
(45.8333°N, 1.7667°E)
Time: 04:14:10
(UTC+00:00)

USA 215 - Pass Details

Date: 18 April 2021
Orbit: 1101 x 1107 km, 123.0° (Epoch: 07 May)

Event Time Altitude Azimuth Distance (km) Brightness Sun altitude
Exits shadow 20:45:38 31° 120° (ESE) 1,839 3.9 -19.3°
Maximum altitude 20:49:06 83° 36° (NE) 1,113 3.2 -19.8°
Drops below altitude 10° 20:55:40 10° 309° (NW) 2,964 6.7 -20.6°
Sets 20:58:09 0° 309° (NW) 3,925 7.7 -20.9°
